Content
SEND FEEDBACK

Daily
Averages
Monthly
Summary
United States of America

STORY, WYOMING


Home > North America > United States > Wyoming
Elevation: 4960 feet     Latitude: 44 34N     Longitude: 106 53W

WEATHER
 
SELECT A DAY
Number of Records: 367,461;   Date Range: 1/1/95 - 8/12/14
 
SHARE

PRINT THIS DATA

[ ← Previous Day ]
WEATHER ALMANAC - JANUARY 31, 2013
[ Next Day → ]
[ °C ]   °F
Weather ElementAverageHighLow
Temperature12.9 °F30.9 °F (8:53 pm)6.1 °F (6:53 am)
Dewpoint8.8 °F24.1 °F (8:53 pm)1.4 °F (6:27 am)
Humidity83.8 %93 % (1:07 am)76 % (8:53 pm)
Barometer30.15 in30.34 in (7:53 am)29.96 in (1:07 am)
Wind Speed4.9 mph16.1 mph (1:21 am)
Weather ElementAverage
Visibility3.8 mi
Wind DirectionESE (121 °)

Weather ElementTotal
Precipitation0.58 in
Heating Degree Days46.5 (Base 65)
Averaged from 60 records on January 31, 2013
WEATHER CONDITIONS BREAKOUT
WIND DIRECTION BREAKOUT
WEATHER BY HOUR - JANUARY 31, 2013
[ °C ]   °F
Local TimeTemperatureDewpointHumidityBarometerVisibilityWind DirectionWind SpeedGust SpeedPrecipitationEventsConditions
12:53 AM21.9 °F19.9 °F92 %30.07 in1.2 miNorth (350°)15.0 mph0.01 inSnowLight Snow
1:07 AM21.2 °F19.4 °F93 %29.96 in2.0 miNNW (340°)13.8 mph0.00 inSnowLight Snow
1:21 AM21.2 °F17.6 °F86 %29.96 in4.0 miNW (320°)16.1 mph0.00 inSnowLight Snow
1:53 AM19.9 °F16.0 °F85 %30.09 in5.0 miNNW (330°)11.5 mph0.00 inSnowLight Snow
2:03 AM19.4 °F15.8 °F86 %29.98 in2.5 miNNW (330°)11.5 mph0.00 inSnowLight Snow
2:13 AM19.4 °F15.8 °F86 %29.99 in1.5 miNNW (340°)16.1 mph0.00 inSnowLight Snow
2:24 AM19.4 °F15.8 °F86 %29.99 in3.0 miNorth (350°)11.5 mph0.00 inSnowLight Snow
2:34 AM19.4 °F15.8 °F86 %30.00 in2.0 miVariable5.8 mph0.00 inSnowLight Snow
2:40 AM15.8 °F12.2 °F86 %30.00 in1.8 miNE (50°)8.1 mph0.01 inSnowLight Snow
2:53 AM14.0 °F10.9 °F88 %30.14 in2.0 miENE (60°)5.8 mph0.01 inSnowLight Snow
3:07 AM14.0 °F10.4 °F86 %30.01 in3.0 miENE (60°)4.6 mph0.00 inSnowLight Snow
3:21 AM12.2 °F10.4 °F92 %30.02 in2.5 miNE (50°)5.8 mph0.00 inSnowLight Snow
3:30 AM12.2 °F8.6 °F85 %30.03 in1.0 miNE (50°)6.9 mph0.00 inSnowLight Snow
3:49 AM10.4 °F6.8 °F85 %30.04 in0.8 miNNE (20°)6.9 mph0.01 inSnowLight Snow
3:53 AM10.0 °F7.0 °F87 %30.20 in0.8 miNE (50°)9.2 mph0.01 inSnowLight Snow
4:53 AM7.0 °F3.9 °F87 %30.26 in0.8 miNorth (10°)10.4 mph0.04 inSnowLight Snow
5:53 AM7.0 °F3.0 °F84 %30.28 in1.0 miNE (40°)8.1 mph0.03 inSnowLight Snow
6:27 AM6.8 °F1.4 °F79 %30.12 in1.0 miVariable4.6 mph0.02 inMist
6:44 AM6.8 °F1.4 °F79 %30.12 in0.8 miNorth0.03 inSnowLight Snow
6:53 AM6.1 °F1.9 °F83 %30.32 in0.8 miCalm0.03 inSnowLight Snow
7:24 AM6.8 °F1.4 °F79 %30.13 in1.0 miCalm0.02 inSnowLight Snow
7:53 AM6.1 °F1.9 °F83 %30.34 in1.2 miCalm0.03 inSnowLight Snow
8:12 AM6.8 °F1.4 °F79 %30.15 in0.8 miCalm0.01 inSnowLight Snow
8:20 AM6.8 °F1.4 °F79 %30.15 in1.0 miSSW (200°)3.5 mph0.01 inSnowLight Snow
8:53 AM6.1 °F3.0 °F87 %30.33 in1.5 miCalm0.02 inSnowLight Snow
9:18 AM6.8 °F1.4 °F79 %30.15 in2.0 miEast (100°)4.6 mph0.01 inSnowLight Snow
9:48 AM6.8 °F3.2 °F85 %30.15 in4.0 miESE (120°)4.6 mph0.01 inSnowLight Snow
9:53 AM7.0 °F3.0 °F84 %30.34 in7.0 miSE (130°)3.5 mph0.01 inSnowLight Snow
10:06 AM6.8 °F3.2 °F85 %30.16 in1.8 miSE (140°)4.6 mph0.00 inSnowLight Snow
10:14 AM8.6 °F3.2 °F79 %30.15 in1.5 miSSE (150°)5.8 mph0.00 inSnowLight Snow
10:26 AM8.6 °F3.2 °F79 %30.15 in0.8 miSSE (160°)5.8 mph0.01 inSnowLight Snow
10:41 AM8.6 °F3.2 °F79 %30.15 in1.0 miSouth (170°)4.6 mphSnowLight Snow
10:48 AM8.6 °F3.2 °F79 %30.14 in0.8 miSSE (150°)4.6 mph0.02 inSnowLight Snow
10:49 AM8.1 °F3.9 °F83 %30.34 in0.8 miSSE (150°)4.6 mph0.02 inSnowLight Snow
10:56 AM8.6 °F5.0 °F85 %30.14 in2.0 miSSE (150°)3.5 mph0.00 inSnowLight Snow
11:03 AM8.6 °F5.0 °F85 %30.14 in4.0 miSE (140°)3.5 mph0.00 inSnowLight Snow
11:15 AM10.4 °F5.0 °F79 %30.14 in2.5 miEast (100°)3.5 mph0.00 inSnowLight Snow
11:23 AM8.6 °F5.0 °F85 %30.13 in1.0 miSE (140°)5.8 mph0.00 inSnowLight Snow
11:35 AM10.4 °F6.8 °F85 %30.12 in0.8 miSE (140°)4.6 mph0.01 inSnowLight Snow
11:42 AM10.4 °F6.8 °F85 %30.12 in2.5 miSSE (160°)4.6 mph0.02 inSnowLight Snow
11:48 AM10.4 °F6.8 °F85 %30.11 in7.0 miSSE (160°)3.5 mph0.03 inSnowLight Snow
11:49 AM10.9 °F6.1 °F81 %30.29 in8.0 miSSE (160°)3.5 mph0.03 inSnowLight Snow
12:14 PM10.4 °F6.8 °F85 %30.11 in2.5 miSSW (200°)4.6 mph0.02 inSnowLight Snow
12:21 PM10.4 °F6.8 °F85 %30.10 in5.0 miSSW (200°)3.5 mph0.02 inSnowLight Snow
12:24 PM10.4 °F6.8 °F85 %30.10 in2.5 miSSW (210°)3.5 mph0.02 inSnowLight Snow
12:30 PM10.4 °F6.8 °F85 %30.10 in0.8 miWSW (250°)3.5 mph0.02 inSnowLight Snow
12:39 PM10.4 °F6.8 °F85 %30.10 in2.5 miCalmSnowLight Snow
12:45 PM10.4 °F6.8 °F85 %30.10 in7.0 miCalm0.02 inSnowLight Snow
12:53 PM12.0 °F7.0 °F80 %30.27 in10.0 miWSW (240°)3.5 mph0.02 inOvercast
1:53 PM14.0 °F8.1 °F77 %30.26 in10.0 miCalm0.00 inOvercast
2:53 PM15.1 °F10.0 °F80 %30.25 in9.0 miSouth (190°)4.6 mph0.00 inOvercast
3:53 PM19.0 °F12.9 °F77 %30.24 in10.0 miCalmOvercast
4:53 PM16.0 °F12.0 °F84 %30.25 in10.0 miCalmOvercast
5:53 PM19.0 °F15.1 °F85 %30.24 in10.0 miCalmOvercast
6:53 PM19.0 °F15.1 °F85 %30.23 in10.0 miSouth (190°)3.5 mph0.00 inOvercast
7:53 PM25.0 °F21.0 °F85 %30.20 in10.0 miSSW (210°)6.9 mphOvercast
8:53 PM30.9 °F24.1 °F76 %30.17 in10.0 miSSW (200°)6.9 mphOvercast
9:53 PM25.0 °F21.0 °F85 %30.18 in10.0 miCalmOvercast
10:53 PM24.1 °F19.9 °F84 %30.16 in10.0 miCalmOvercast
11:53 PM27.0 °F24.1 °F89 %30.15 in10.0 miCalmOvercast
Hourly data recorded from KSHR, located miles away from Story, Wyoming







STORIES FROM OUR PARTNERS